Location: Unspecified
(0.0000°N, 0.0000°E)
Time: 09:44:45
(UTC+00:00)

Hubble Space Telescope - Pass Details

Date: 23 June 2017
Orbit: 537 x 541 km, 28.5° (Epoch: 16 October)

Event Time Altitude Azimuth Distance (km) Brightness Sun altitude
Exits shadow 03:42:17 23° 64° (ENE) 1,171 3.1 -31.7°
Drops below altitude 10° 03:43:55 10° 62° (ENE) 1,786 4.3 -31.4°
Sets 03:46:10 0° 61° (ENE) 2,676 5.5 -30.9°
